This demonstration page uses our WeatherBlox Daily Observations layout. Learn more.

Left ArrowRight Arrow

Hourly Observations for September 30, 2021

Temp ( °F °C ) Dew Point ( °F °C ) Humidity (%) Winds ( mph kmh ) Pressure ( in mb ) Visibility ( mi km ) Precip ( " mm )
12:52 am 00:52 Cloudy 73 22.8 67 19.4 81 81 ESE 3 6 29.96 1014 10 16 0.00 0.00
1:44 am 01:44 Mostly Cloudy with Thunderstorms 71 21.7 67 19.4 87 87 E 3 6 29.94 1014 10 16 0.00 0.00
1:52 am 01:52 Mostly Cloudy with Thunderstorms 70 21.1 67 19.4 90 90 ESE 3 6 29.95 1014 10 16 0.00 0.00
2:52 am 02:52 Cloudy with Strong Thunderstorms 69 20.6 65 18.3 87 87 SE 18 30 29.96 1015 3 5 0.00 0.00
2:55 am 02:55 Cloudy with Strong Thunderstorms 70 21.1 65 18.3 84 84 SE 21 33 29.95 1014 3 4 0.03 0.76
3:06 am 03:06 Windy with Storms Likely 70 21.1 65 18.3 84 84 SSE 23 37 29.96 1015 5 8 0.06 1.52
3:52 am 03:52 Cloudy with Strong Thunderstorms 68 20 65 18.3 90 90 E 20 31 29.97 1015 3 5 0.18 4.57
4:05 am 04:05 Cloudy with Strong Thunderstorms 68 20 65 18.3 90 90 E 22 35 29.96 1015 3 4 0.22 5.59
4:27 am 04:27 Cloudy with Thunderstorms 68 20 65 18.3 90 90 E 13 20 29.95 1014 4 6 0.45 11.43
4:37 am 04:37 Cloudy with Strong Thunderstorms 68 20 65 18.3 90 90 S 10 17 29.98 1015 2 3 0.47 11.94
4:41 am 04:41 Cloudy with Strong Thunderstorms 68 20 65 18.3 90 90 E 12 19 29.97 1015 1 2 0.56 14.22
4:47 am 04:47 Cloudy with Strong Thunderstorms 68 20 64 18 88 88 ENE 20 31 29.96 1015 1 2 0.88 22.35
4:52 am 04:52 Cloudy with Strong Thunderstorms 68 20 65 18.3 90 90 ENE 20 31 29.97 1015 3 4 1.06 26.92
4:58 am 04:58 Cloudy with Thunderstorms 67 19.4 65 18.3 93 93 ENE 15 24 29.98 1015 5 8 0.03 0.76
5:38 am 05:38 Cloudy with Thunderstorms 68 20 65 18.3 90 90 NE 7 11 29.98 1015 8 13 0.05 1.27
5:52 am 05:52 Cloudy 68 20 65 18.3 90 90 NE 7 11 29.98 1015 8 13 0.05 1.27
6:16 am 06:16 Cloudy 67 19.4 65 18.3 93 93 E 3 6 29.98 1015 10 16 0.00 0.00
6:52 am 06:52 Cloudy 67 19.4 65 18.3 93 93 Calm 29.98 1015 10 16 0.00 0.00
7:52 am 07:52 Mostly Cloudy 67 19.4 65 18.3 93 93 SSE 3 6 30.00 1016 10 16 0.00 0.00
8:37 am 08:37 Mostly Cloudy 68 20 65 18.3 90 90 SE 8 13 30.00 1016 10 16 0.00 0.00
8:52 am 08:52 Mostly Cloudy 69 20.6 66 18.9 90 90 ESE 8 13 30.02 1017 10 16 0.00 0.00
9:52 am 09:52 Mostly Cloudy 72 22.2 66 18.9 82 82 E 13 20 30.01 1016 10 16 0.00 0.00
10:52 am 10:52 Partly Cloudy 75 23.9 67 19.4 76 76 SE 14 22 30.02 1017 10 16 0.00 0.00
11:52 am 11:52 Mostly Cloudy 78 25.6 67 19.4 69 69 SSE 13 20 30.02 1017 10 16 0.00 0.00
12:52 pm 12:52 Mostly Cloudy 80 26.7 67 19.4 64 64 SE 15 24 30.00 1016 10 16 0.00 0.00
1:52 pm 13:52 Mostly Cloudy 83 28.3 66 18.9 57 57 SSE 13 20 29.99 1016 10 16 0.00 0.00
2:52 pm 14:52 Partly Cloudy 84 28.9 66 18.9 55 55 SE 12 19 29.96 1015 10 16 0.00 0.00
3:52 pm 15:52 Partly Cloudy 84 28.9 65 18.3 53 53 SE 10 17 29.95 1014 10 16 0.00 0.00
4:52 pm 16:52 Mostly Cloudy 84 28.9 65 18.3 53 53 SSE 12 19 29.95 1014 10 16 0.00 0.00
5:52 pm 17:52 Mostly Cloudy 82 27.8 64 17.8 55 55 SSE 9 15 29.96 1015 10 16 0.00 0.00
6:52 pm 18:52 Mostly Cloudy 80 26.7 64 17.8 58 58 W 9 15 29.99 1016 10 16 0.00 0.00
7:52 pm 19:52 Mostly Cloudy 75 23.9 67 19.4 76 76 NNE 6 9 30.00 1016 10 16 0.00 0.00
8:52 pm 20:52 Mostly Cloudy 70 21.1 66 18.9 87 87 N 9 15 30.01 1016 10 16 0.00 0.00
9:52 pm 21:52 Cloudy 72 22.2 66 18.9 82 82 S 5 7 30.05 1018 10 16 0.00 0.00
10:04 pm 22:04 Cloudy with Nearby Thunderstorms 72 22.2 65 18.3 79 79 NW 5 7 30.02 1017 10 16 0.00 0.00
10:12 pm 22:12 Cloudy with Thunderstorms 72 22.2 66 18.9 82 82 VRB 5 7 30.03 1017 10 16 0.00 0.00
10:49 pm 22:49 Cloudy with Thunderstorms 70 21 66 19 88 88 N 3 6 30.02 1017 10 16 0.08 2.03
10:52 pm 22:52 Cloudy with Thunderstorms 69 20.6 67 19.4 93 93 Calm 30.03 1017 10 16 0.08 2.03
11:04 pm 23:04 Mostly Cloudy 69 20.6 67 19.4 93 93 Calm 30.02 1017 10 16 0.00 0.00
11:52 pm 23:52 Mostly Cloudy 69 20.6 68 20 96 96 ESE 10 17 30.05 1018 10 16 0.00 0.00

Powered by AerisWeather